Starlink 32844

operational
NORAD ID: 62820 Int'l Des: 2025-018 Owner: SPXS Country: US Constellation: starlink
LEOCIRCULAR

About Starlink 32844

Description loading...

Live Position

Loading 3D Globe...

Upcoming Passes

Altitude History

Altitude vs Time

uPlot chart will show altitude changes over time

Two-Line Element Set

1 62820U 25018Q 25352.34348914 .00016453 00000-0 56630-3 0 9999
2 62820 53.1616 327.4589 0001221 85.8601 274.2540 15.30206124 50715
Epoch: Dec 18, 2025 • Age: 19 hours

Current Status

Altitude 480.1 km
Velocity 7.63 km/s
Sub-Earth Point 49.97°N, 59.55°W
Launch Date Jan 24, 2025
Age 0.8 years
Type internet

Technical Details

Classification Payload
Mass 730.00 kg
Dry Mass 700.00 kg
Total Mass 730.00 kg
Length 0.30 m
Diameter 4.10 m
Span 29.00 m
Shape Box + pan
Manufacturer SPXS
Bus Type Starlink V2M
Phase Status In Orbit
Owner/State SPXS/US

Large Constellations

Loading constellations...